This is the latest recevied weather packets stored in our database for station/object IW4DZV-13. If no packets are shown the sender has not sent any weather packets the latest 10 day(s).
| Time | Temp. | Humidity | Pressure | Rain* | Wind** | Luminosity | Snow |
|---|---|---|---|---|---|---|---|
| 1777721443 | 22.78° C | 35% | 1023.4 hPa | 0 mm | - | 854 W/m² | - |
| 1777720550 | 22.78° C | 32% | 1023.6 hPa | 0 mm | - | 861 W/m² | - |
| 1777719640 | 22.78° C | 33% | 1023.8 hPa | 0 mm | - | 861 W/m² | - |
| 1777718737 | 22.78° C | 34% | 1024.2 hPa | 0 mm | - | 860 W/m² | - |
| 1777717843 | 22.78° C | 36% | 1024.3 hPa | 0 mm | - | 853 W/m² | - |
| 1777716932 | 22.78° C | 31% | 1024.5 hPa | 0 mm | - | 842 W/m² | - |
| 1777716030 | 22.22° C | 34% | 1024.7 hPa | 0 mm | - | 831 W/m² | - |
| 1777715129 | 22.22° C | 32% | 1024.8 hPa | 0 mm | - | 816 W/m² | - |
| 1777714238 | 22.22° C | 35% | 1024.9 hPa | 0 mm | - | 793 W/m² | - |
| 1777713320 | 21.67° C | 38% | 1025 hPa | 0 mm | - | 772 W/m² | - |
| 1777712415 | 21.11° C | 38% | 1025.1 hPa | 0 mm | - | 749 W/m² | - |
| 1777711513 | 20.56° C | 42% | 1025.2 hPa | 0 mm | - | 722 W/m² | - |
| 1777710612 | 19.44° C | 46% | 1025.1 hPa | 0 mm | - | 686 W/m² | - |
| 1777709705 | 18.89° C | 46% | 1025.2 hPa | 0 mm | - | 656 W/m² | - |
| 1777708802 | 18.89° C | 47% | 1025.3 hPa | 0 mm | - | 621 W/m² | - |
| 1777707961 | 17.78° C | 46% | 1025.4 hPa | 0 mm | - | 584 W/m² | - |
| 1777707055 | 17.22° C | 49% | 1025.5 hPa | 0 mm | - | 545 W/m² | - |
| 1777706150 | 16.67° C | 51% | 1025.6 hPa | 0 mm | - | 504 W/m² | - |
| 1777705246 | 16.11° C | 51% | 1025.7 hPa | 0 mm | - | 462 W/m² | - |
| 1777704343 | 15.56° C | 55% | 1025.6 hPa | 0 mm | - | 420 W/m² | - |
| 1777703445 | 15° C | 55% | 1025.7 hPa | 0 mm | - | 374 W/m² | - |
| 1777702537 | 14.44° C | 55% | 1025.6 hPa | 0 mm | - | 334 W/m² | - |
| 1777701630 | 13.89° C | 56% | 1025.6 hPa | 0 mm | - | 287 W/m² | - |
| 1777700733 | 12.78° C | 59% | 1025.6 hPa | 0 mm | - | 244 W/m² | - |
| 1777699822 | 11.11° C | 63% | 1025.7 hPa | 0 mm | - | 195 W/m² | - |
* Rain since midnight (hover to see other rain measurements)
** Current wind speed in m/s (hover to see current wind gust speed)